Weather History for Sheldon, IA

Change the Weather History Date:

Saturday, October 22, 2011

  Actual Average Record
Temperature  
Mean Temperature 45 °F -  
Max Temperature 64 °F 60 °F 80 °F (1963)
Min Temperature 26 °F 37 °F 16 °F (1976)
Degree Days  
Heating Degree Days 20    
Moisture  
Dew Point 31 °F    
Average Humidity 60    
Maximum Humidity 93    
Minimum Humidity 26    
Precipitation  
Precipitation 0.00 in - - ()
Sea Level Pressure  
Sea Level Pressure 30.10 in    
Wind  
Wind Speed 1 mph (South)    
Max Wind Speed 10 mph    
Max Gust Speed -    
Visibility 10 miles    
Events      
Averages and records for this station are not official NWS values.
T = Trace of Precipitation, MM = Missing Value Source: NWS Daily Summary

Daily Weather History Graph

Daily Weather History Graph

Search for Another Location

Airport:

Trip Planner

Search our weather history database for the weather conditions in past years. The results will help you decide how hot, cold, wet, or windy it might be!

Date:

Astronomy

Oct. 22, 2011 Rise Set
Actual Time 7:45 AM CDT 6:29 PM CDT
Civil Twilight 7:16 AM CDT 6:58 PM CDT
Nautical Twilight 6:43 AM CDT 7:31 PM CDT
Astronomical Twilight 6:10 AM CDT 8:04 PM CDT
Moon 2:36 AM CDT (10/22) 3:54 PM CDT (10/22)
Length of Visible Light 11h 42m
Length of Day
10h 44m
Waning Crescent, 23% of the Moon is Illuminated
Oct 22
Waning Crescent
Oct 26
New
Nov 2
First Quarter
Nov 10
Full
Nov 18
Last Quarter

Hourly Weather History & Observations

Time (CDT) Temp. Windchill Dew Point Humidity Pressure Visibility Wind Dir Wind Speed Gust Speed Precip Events Conditions
12:15 AM 39.2 °F - 32.0 °F 75% 30.09 in 10.0 mi Calm Calm - N/A   Clear
12:35 AM 39.2 °F - 30.2 °F 70% 30.09 in 10.0 mi Calm Calm - N/A   Clear
12:55 AM 39.2 °F - 32.0 °F 75% 30.08 in 10.0 mi Calm Calm - N/A   Mostly Cloudy
1:15 AM 39.2 °F - 30.2 °F 70% 30.08 in 10.0 mi Calm Calm - N/A   Scattered Clouds
1:35 AM 37.4 °F - 30.2 °F 75% 30.08 in 10.0 mi Calm Calm - N/A   Scattered Clouds
2:15 AM 37.4 °F - 30.2 °F 75% 30.09 in 10.0 mi Calm Calm - N/A   Clear
2:35 AM 39.2 °F - 30.2 °F 70% 30.09 in 10.0 mi Calm Calm - N/A   Clear
2:55 AM 37.4 °F - 32.0 °F 81% 30.10 in 10.0 mi Calm Calm - N/A   Clear
3:15 AM 35.6 °F 32.8 °F 30.2 °F 81% 30.10 in 10.0 mi WNW 3.5 mph - N/A   Clear
3:35 AM 35.6 °F 31.7 °F 30.2 °F 81% 30.10 in 10.0 mi West 4.6 mph - N/A   Clear
3:55 AM 37.4 °F - 30.2 °F 75% 30.10 in 10.0 mi Calm Calm - N/A   Clear
4:15 AM 35.6 °F - 30.2 °F 81% 30.10 in 10.0 mi Calm Calm - N/A   Clear
4:35 AM 33.8 °F - 28.4 °F 81% 30.11 in 10.0 mi Calm Calm - N/A   Clear
4:55 AM 33.8 °F - 28.4 °F 81% 30.11 in 10.0 mi Calm Calm - N/A   Clear
5:15 AM 32.0 °F - 26.6 °F 80% 30.11 in 10.0 mi Calm Calm - N/A   Clear
5:35 AM 30.2 °F - 26.6 °F 86% 30.12 in 10.0 mi Calm Calm - N/A   Clear
5:55 AM 30.2 °F - 26.6 °F 86% 30.13 in 10.0 mi Calm Calm - N/A   Clear
6:15 AM 28.4 °F - 24.8 °F 86% 30.13 in 10.0 mi Calm Calm - N/A   Clear
6:35 AM 26.6 °F - 21.2 °F 80% 30.14 in 10.0 mi Calm Calm - N/A   Clear
6:55 AM 28.4 °F - 24.8 °F 86% 30.14 in 10.0 mi Calm Calm - N/A   Clear
7:15 AM 26.6 °F - 23.0 °F 86% 30.14 in 10.0 mi Calm Calm - N/A   Clear
7:35 AM 26.6 °F - 23.0 °F 86% 30.14 in 10.0 mi Calm Calm - N/A   Clear
7:55 AM 26.6 °F - 23.0 °F 86% 30.15 in 7.0 mi Calm Calm - N/A   Clear
8:15 AM 28.4 °F - 26.6 °F 93% 30.14 in 5.0 mi Calm Calm - N/A   Clear
8:35 AM 32.0 °F - 28.4 °F 87% 30.14 in 10.0 mi Calm Calm - N/A   Clear
8:55 AM 35.6 °F - 32.0 °F 87% 30.14 in 10.0 mi Calm Calm - N/A   Clear
9:15 AM 39.2 °F - 33.8 °F 81% 30.14 in 10.0 mi Calm Calm - N/A   Clear
9:35 AM 42.8 °F - 35.6 °F 76% 30.15 in 10.0 mi Calm Calm - N/A   Clear
9:55 AM 44.6 °F - 37.4 °F 76% 30.15 in 10.0 mi Calm Calm - N/A   Clear
10:35 AM 51.8 °F - 37.4 °F 58% 30.15 in 10.0 mi Calm Calm - N/A   Clear
10:55 AM 53.6 °F - 35.6 °F 51% 30.15 in 10.0 mi East 4.6 mph - N/A   Clear
11:15 AM 55.4 °F - 35.6 °F 47% 30.15 in 10.0 mi ESE 3.5 mph - N/A   Clear
11:35 AM 57.2 °F - 33.8 °F 41% 30.15 in 10.0 mi ESE 5.8 mph - N/A   Clear
11:55 AM 60.8 °F - 32.0 °F 34% 30.15 in 10.0 mi East 3.5 mph - N/A   Clear
12:15 PM 60.8 °F - 30.2 °F 31% 30.14 in 10.0 mi SE 4.6 mph - N/A   Clear
12:35 PM 60.8 °F - 30.2 °F 31% 30.13 in 10.0 mi South 3.5 mph - N/A   Clear
12:55 PM 60.8 °F - 30.2 °F 31% 30.13 in 10.0 mi SSE 3.5 mph - N/A   Clear
1:15 PM 62.6 °F - 30.2 °F 30% 30.12 in 10.0 mi ESE 3.5 mph - N/A   Clear
1:35 PM 60.8 °F - 28.4 °F 29% 30.11 in 10.0 mi ESE 4.6 mph - N/A   Clear
1:55 PM 62.6 °F - 30.2 °F 30% 30.09 in 10.0 mi ESE 3.5 mph - N/A   Clear
2:15 PM 62.6 °F - 30.2 °F 30% 30.09 in 10.0 mi South 3.5 mph - N/A   Clear
2:35 PM 62.6 °F - 28.4 °F 27% 30.08 in 10.0 mi SE 4.6 mph - N/A   Clear
2:55 PM 62.6 °F - 28.4 °F 27% 30.08 in 10.0 mi South 4.6 mph - N/A   Clear
3:15 PM 64.4 °F - 28.4 °F 26% 30.07 in 10.0 mi South 4.6 mph - N/A   Clear
3:35 PM 62.6 °F - 28.4 °F 27% 30.07 in 10.0 mi Calm Calm - N/A   Clear
3:55 PM 64.4 °F - 28.4 °F 26% 30.06 in 10.0 mi South 4.6 mph - N/A   Clear
4:15 PM 64.4 °F - 28.4 °F 26% 30.06 in 10.0 mi South 3.5 mph - N/A   Clear
4:35 PM 64.4 °F - 28.4 °F 26% 30.06 in 10.0 mi SW 4.6 mph - N/A   Clear
4:55 PM 62.6 °F - 26.6 °F 26% 30.06 in 10.0 mi SW 4.6 mph - N/A   Clear
5:15 PM 60.8 °F - 26.6 °F 27% 30.06 in 10.0 mi SSW 3.5 mph - N/A   Mostly Cloudy
5:35 PM 60.8 °F - 28.4 °F 29% 30.05 in 10.0 mi WSW 10.4 mph - N/A   Overcast
5:55 PM 57.2 °F - 39.2 °F 51% 30.06 in 10.0 mi WSW 8.1 mph - N/A   Overcast
6:15 PM 55.4 °F - 39.2 °F 54% 30.06 in 10.0 mi WSW 6.9 mph - N/A   Overcast
6:35 PM 53.6 °F - 37.4 °F 54% 30.06 in 10.0 mi SW 4.6 mph - N/A   Mostly Cloudy
6:55 PM 53.6 °F - 35.6 °F 51% 30.06 in 10.0 mi SW 4.6 mph - N/A   Scattered Clouds
7:15 PM 51.8 °F - 35.6 °F 54% 30.06 in 10.0 mi Calm Calm - N/A   Clear
7:35 PM 50.0 °F - 35.6 °F 58% 30.06 in 10.0 mi SW 3.5 mph - N/A   Scattered Clouds
7:55 PM 50.0 °F - 35.6 °F 58% 30.05 in 10.0 mi SSW 3.5 mph - N/A   Mostly Cloudy
8:15 PM 46.4 °F - 35.6 °F 66% 30.04 in 10.0 mi Calm Calm - N/A   Scattered Clouds
8:35 PM 42.8 °F - 32.0 °F 66% 30.04 in 7.0 mi Calm Calm - N/A   Clear
8:55 PM 39.2 °F - 30.2 °F 70% 30.04 in 10.0 mi Calm Calm - N/A   Scattered Clouds
9:15 PM 42.8 °F 40.1 °F 33.8 °F 70% 30.03 in 10.0 mi SSE 4.6 mph - N/A   Scattered Clouds
9:35 PM 42.8 °F 40.1 °F 35.6 °F 76% 30.02 in 10.0 mi South 4.6 mph - N/A   Clear
9:55 PM 39.2 °F 37.0 °F 33.8 °F 81% 30.02 in 10.0 mi South 3.5 mph - N/A   Clear
10:15 PM 42.8 °F 41.1 °F 35.6 °F 76% 30.02 in 10.0 mi South 3.5 mph - N/A   Clear
10:35 PM 42.8 °F 40.1 °F 37.4 °F 81% 30.00 in 10.0 mi South 4.6 mph - N/A   Clear
10:55 PM 39.2 °F - 33.8 °F 81% 30.01 in 10.0 mi Calm Calm - N/A   Clear
11:15 PM 39.2 °F 35.9 °F 33.8 °F 81% 30.00 in 10.0 mi SSW 4.6 mph - N/A   Clear
11:35 PM 44.6 °F - 35.6 °F 71% 30.00 in 10.0 mi Calm Calm - N/A   Clear
11:55 PM 42.8 °F 40.1 °F 35.6 °F 76% 29.99 in 10.0 mi SSE 4.6 mph - N/A   Clear